"Time","Temp","Dewpoint","Humidity","Pressure","Direction","Speed","Gust","Precip","PrecipRate"
"00:04:59","70.9","65.6","83.3","30.08","179","0","0","0.00","0.00"
"00:09:56","70.5","65.4","84.1","30.08","179","0","0","0.00","0.00"
"00:14:59","70.2","65.5","85","30.08","179","0","0","0.00","0.00"
"00:19:56","69.9","65.4","85.8","30.08","179","0","0","0.00","0.00"
"00:24:57","69.6","65.2","86","30.08","179","0","0","0.00","0.00"
"00:29:59","69.5","65.4","86.7","30.08","179","0","0","0.00","0.00"
"00:34:56","69.4","65.4","87","30.08","179","0","0","0.00","0.00"
"00:39:59","69.3","65.3","87","30.08","179","0","0","0.00","0.00"
"00:44:57","69.3","65.3","87","30.08","179","0","0","0.00","0.00"
"00:49:58","69.2","65.2","87","30.07","179","0","0","0.00","0.00"
"00:54:59","69.1","65.1","87","30.07","179","0","0","0.00","0.00"
"00:59:57","69","65","87","30.07","179","0","0","0.00","0.00"
"01:04:58","68.8","65","87.5","30.07","179","0","0","0.00","0.00"
"01:09:56","68.6","64.9","88","30.07","179","0","0","0.00","0.00"
"01:14:58","68.4","64.7","88","30.07","179","0","0","0.00","0.00"
"01:19:56","68.3","64.8","88.9","30.07","179","0","0","0.00","0.00"
"01:24:57","68.2","64.8","89","30.07","179","0","0","0.00","0.00"
"01:29:58","68.2","64.8","89","30.07","179","0","0","0.00","0.00"
"01:34:56","68","64.6","89","30.07","179","0","0","0.00","0.00"
"01:39:58","67.8","64.6","89.5","30.07","179","0","0","0.00","0.00"
"01:44:59","67.6","64.6","90","30.07","179","0","0","0.00","0.00"
"01:49:59","67.4","64.4","90.1","30.07","179","0","0","0.00","0.00"
"01:54:52","67.2","64.5","91","30.07","179","0","0","0.00","0.00"
"01:59:58","67","64.3","91","30.07","179","0","0","0.00","0.00"
"02:04:59","66.9","64.2","91","30.07","179","0","0","0.00","0.00"
"02:09:57","66.8","64.1","91.2","30.07","179","0","0","0.00","0.00"
"02:14:56","66.7","64.3","92","30.07","179","0","0","0.00","0.00"
"02:19:57","66.6","64.2","92","30.06","179","0","0","0.00","0.00"
"02:24:58","66.5","64.1","92","30.06","179","0","0","0.00","0.00"
"02:29:56","66.4","64","92","30.06","179","0","0","0.00","0.00"
"02:34:57","66.3","63.9","92.1","30.06","179","0","0","0.00","0.00"
"02:39:56","66.2","64.1","93","30.06","179","0","0","0.00","0.00"
"02:44:57","66.1","64","93","30.06","179","0","0","0.00","0.00"
"02:49:58","66","63.9","93","30.06","179","0","0","0.00","0.00"
"02:54:56","65.9","63.9","93.1","30.06","179","0","0","0.00","0.00"
"02:59:57","65.9","64.1","94","30.06","179","0","0","0.00","0.00"
"03:04:59","65.9","64.1","94","30.06","179","0","0","0.00","0.00"
"03:09:56","65.8","63.9","93.6","30.06","179","0","0","0.00","0.00"
"03:14:59","65.8","64","94","30.06","179","0","0","0.00","0.00"
"03:19:56","65.7","63.9","94","30.06","179","0","0","0.00","0.00"
"03:24:57","65.6","63.8","94","30.06","179","0","0","0.00","0.00"
"03:29:59","65.5","63.7","94","30.06","179","0","0","0.00","0.00"
"03:34:57","65.5","63.7","94","30.05","179","0","0","0.00","0.00"
"03:39:59","65.4","63.6","94","30.05","179","0","0","0.00","0.00"
"03:44:57","65.3","63.5","94","30.05","179","0","0","0.00","0.00"
"03:49:58","65.3","63.5","94","30.05","179","0","0","0.00","0.00"
"03:54:59","65.2","63.4","94","30.05","179","0","0","0.00","0.00"
"03:59:56","65","63.2","94","30.05","179","0","0","0.00","0.00"
"04:04:57","65","63.2","94","30.05","179","0","0","0.00","0.00"
"04:09:58","64.9","63.1","94","30.05","179","0","0","0.00","0.00"
"04:14:57","64.7","62.9","94","30.05","179","0","0","0.00","0.00"
"04:19:58","64.7","62.9","94","30.05","179","0","0","0.00","0.00"
"04:24:59","64.6","63.1","94.9","30.05","179","0","0","0.00","0.00"
"04:29:56","64.6","63.1","95","30.05","179","0","0","0.00","0.00"
"04:34:58","64.5","63","95","30.05","179","0","0","0.00","0.00"
"04:39:56","64.3","62.8","95","30.05","179","0","0","0.00","0.00"
"04:44:57","64.3","62.8","95","30.05","179","0","0","0.00","0.00"
"04:49:59","64.1","62.6","95","30.05","179","0","0","0.00","0.00"
"04:54:56","64.1","62.6","95","30.05","179","0","0","0.00","0.00"
"04:59:58","64","62.5","95","30.05","179","0","0","0.00","0.00"
"05:04:59","63.9","62.4","95","30.05","179","0","0","0.00","0.00"
"05:09:57","63.8","62.3","95","30.05","179","0","0","0.00","0.00"
"05:14:59","63.8","62.4","95.5","30.05","179","0","0","0.00","0.00"
"05:19:56","63.7","62.5","95.8","30.05","179","0","0","0.00","0.00"
"05:24:58","63.7","62.4","95.8","30.05","179","0","0","0.00","0.00"
"05:29:59","63.6","62.3","95.7","30.05","179","0","0","0.00","0.00"
"05:34:57","63.5","62","95","30.05","179","0","0","0.00","0.00"
"05:39:56","63.4","61.9","95","30.05","179","0","0","0.00","0.00"
"05:44:57","63.3","61.8","95","30.06","179","0","0","0.00","0.00"
"05:49:58","63.2","61.7","95.1","30.06","179","0","0","0.00","0.00"
"05:54:56","63.1","61.9","96","30.06","179","0","0","0.00","0.00"
"05:59:58","63.1","61.9","96","30.06","179","0","0","0.00","0.00"
"06:04:59","63.2","62","96","30.06","186","0","0","0.00","0.00"
"06:09:58","63.3","62.1","96","30.06","186","0","0","0.00","0.00"
"06:14:56","63.3","62.1","96","30.06","186","0","0","0.00","0.00"
"06:19:57","63.3","62.1","96","30.06","186","0","1.2","0.00","0.00"
"06:24:58","63.2","62","96","30.06","171","0","1.2","0.00","0.00"
"06:29:59","63.2","62","96","30.06","171","0","0","0.00","0.00"
"06:34:57","63.3","62.1","96","30.06","171","0","0","0.00","0.00"
"06:39:59","63.4","62.5","96.9","30.06","171","0","0","0.00","0.00"
"06:44:56","63.6","62.7","97","30.06","171","0","0","0.00","0.00"
"06:49:57","63.8","62.9","97","30.06","171","0","0","0.00","0.00"
"06:54:58","63.9","63","97","30.06","171","0","0","0.00","0.00"
"06:59:59","64.1","63.2","97","30.07","171","0","0","0.00","0.00"
"07:04:56","64.4","63.5","97","30.07","171","0","0","0.00","0.00"
"07:09:57","64.9","64.2","97.9","30.07","171","0","0","0.00","0.00"
"07:14:59","65.3","64.7","98","30.07","170","0.4","2.3","0.00","0.00"
"07:19:56","65.8","65.2","98","30.07","170","0.3","2.3","0.00","0.00"
"07:24:57","66.3","65.5","97.2","30.07","170","0","0","0.00","0.00"
"07:29:58","66.8","65.9","97","30.07","170","0","0","0.00","0.00"
"07:34:56","67.4","66.5","97","30.07","170","0","0","0.00","0.00"
"07:39:58","68","67","96.5","30.07","277","0","0","0.00","0.00"
"07:44:59","68.6","67.4","96","30.07","278","0","0","0.00","0.00"
"07:49:56","69.2","67.7","94.9","30.07","280","0","0","0.00","0.00"
"07:54:57","69.7","67.9","94","30.07","280","0.1","1.2","0.00","0.00"
"07:59:59","70.4","68.4","93.4","30.07","280","0","0","0.00","0.00"
"08:04:56","71.1","68.7","92","30.07","280","0.2","2.3","0.00","0.00"
"08:09:58","71.7","69.2","92","30.07","280","0","0","0.00","0.00"
"08:14:56","72.4","69.4","90.4","30.07","280","0.1","2","0.00","0.00"
"08:19:58","73.1","69.4","88.3","30.07","280","0.2","2.3","0.00","0.00"
"08:24:59","73.8","69.5","86.5","30.07","280","0.2","2.3","0.00","0.00"
"08:29:56","74.4","69.2","83.9","30.08","281","0.7","4","0.00","0.00"
"08:34:58","75","69.3","82.5","30.08","281","0.5","3.5","0.00","0.00"
"08:39:56","75.6","69.9","82.6","30.08","281","0.2","2.3","0.00","0.00"
"08:44:57","76.3","70.5","82.3","30.08","289","0.1","1.2","0.00","0.00"
"08:49:58","77","70.2","79.5","30.07","297","0.7","2.3","0.00","0.00"
"08:54:59","77.6","69.8","77.1","30.07","327","1.1","5","0.00","0.00"
"08:59:56","78.1","70.1","76.5","30.07","339","1.1","4","0.00","0.00"
"09:04:57","78.6","69.6","74.1","30.07","351","2.1","5","0.00","0.00"
"09:09:56","79","70","73.8","30.07","348","1.1","4","0.00","0.00"
"09:14:59","79.5","69.6","71.7","30.08","333","1.4","4","0.00","0.00"
"09:19:57","79.9","69.9","71.4","30.08","322","0.6","2.3","0.00","0.00"
"09:24:59","80.3","70.3","71.5","30.08","64","0","0","0.00","0.00"
"09:29:57","80.9","70.8","71.5","30.08","44","0","0","0.00","0.00"
"09:34:56","81.3","71.2","71.5","30.08","271","1.7","5","0.00","0.00"
"09:39:59","81.5","70.7","69.9","30.08","249","0.7","4","0.00","0.00"
"09:44:57","81.8","71.6","71.2","30.08","345","1.5","6","0.00","0.00"
"09:49:56","82.3","71","68.8","30.07","325","2.3","7","0.00","0.00"
"09:54:58","82.5","71.2","68.8","30.07","343","1.8","5","0.00","0.00"
"09:59:56","82.8","71.2","68.2","30.07","348","1.4","3.5","0.00","0.00"
"10:04:54","83","71.4","68.2","30.07","340","0.9","3.5","0.00","0.00"
"10:09:57","83.3","72","68.7","30.07","342","0.8","4","0.00","0.00"
"10:14:56","83.8","71.8","67.3","30.07","332","2.3","6","0.00","0.00"
"10:19:59","84.2","71.1","64.9","30.07","314","3.1","9.2","0.00","0.00"
"10:24:57","84.4","71.3","64.9","30.07","349","2.5","6","0.00","0.00"
"10:29:59","84.8","70.8","63","30.07","336","3.4","9.2","0.00","0.00"
"10:34:57","85","71.1","63.1","30.07","348","1.2","9.2","0.00","0.00"
"10:39:56","85.4","71","62.2","30.07","354","3.3","9","0.00","0.00"
"10:44:58","85.7","71.3","62.1","30.07","318","2.9","9.2","0.00","0.00"
"10:49:56","85.9","70.8","60.7","30.07","342","3.1","6.9","0.00","0.00"
"10:54:58","86.2","70.6","59.8","30.07","352","2.7","7","0.00","0.00"
"10:59:57","86.4","70.8","59.7","30.07","318","2.6","6.9","0.00","0.00"
"11:04:59","86.7","70.4","58.4","30.06","326","3.7","9.2","0.00","0.00"
"11:09:57","86.8","69.7","56.9","30.06","342","4.1","9.2","0.00","0.00"
"11:14:57","87","70.3","57.9","30.06","340","2.5","6","0.00","0.00"
"11:19:56","87.4","70.4","57.3","30.06","340","3.7","10.4","0.00","0.00"
"11:24:58","87.6","70.5","57","30.06","345","3","6.9","0.00","0.00"
"11:29:56","87.9","70.4","56.2","30.06","340","2.7","6","0.00","0.00"
"11:34:58","88.1","69.9","55","30.06","326","3.1","9.2","0.00","0.00"
"11:39:57","88.1","69.8","54.9","30.06","302","3","7","0.00","0.00"
"11:44:59","88.2","70.3","55.6","30.06","310","3.2","7","0.00","0.00"
"11:49:58","88.4","71.8","58.1","30.06","335","1.9","6","0.00","0.00"
"11:54:56","88.7","71.6","57.1","30.06","267","2.1","5.8","0.00","0.00"
"11:59:58","88.9","71.6","56.7","30.06","334","2.2","7","0.00","0.00"
"12:04:56","89.1","71.2","55.8","30.05","348","1","5.8","0.00","0.00"
"12:09:59","89.4","72.4","57.4","30.05","344","1.5","7","0.00","0.00"
"12:14:58","89.8","71.5","55","30.05","342","2","5","0.00","0.00"
"12:19:56","89.9","71.8","55.5","30.05","338","1.3","5","0.00","0.00"
"12:24:58","90.1","72.2","55.9","30.05","331","1.7","4.6","0.00","0.00"
"12:29:56","90.3","72.4","55.9","30.05","321","1.8","6","0.00","0.00"
"12:34:59","90.5","72.1","55","30.04","334","2.3","6.9","0.00","0.00"
"12:39:58","90.6","72.5","55.6","30.04","350","1.6","5","0.00","0.00"
"12:44:56","90.8","71.7","53.7","30.04","334","2","7","0.00","0.00"
"12:49:58","90.8","71.7","53.8","30.04","326","1.4","5","0.00","0.00"
"12:54:56","91","72.7","55.2","30.04","324","1.8","7","0.00","0.00"
"12:59:58","91.1","71.6","53.2","30.04","324","3","6.9","0.00","0.00"
"13:04:56","91.1","72.3","54.4","30.04","326","1.9","6","0.00","0.00"
"13:09:59","91.3","71.9","53.3","30.04","336","1.1","5.8","0.00","0.00"
"13:14:58","91.5","71.3","51.8","30.04","343","1.9","6","0.00","0.00"
"13:19:56","91.6","72.4","53.7","30.04","333","3.1","11.5","0.00","0.00"
"13:24:59","91.6","71.6","52.3","30.04","356","3.4","7","0.00","0.00"
"13:29:57","91.4","71.5","52.3","30.04","342","3","7","0.00","0.00"
"13:34:59","91.5","73.1","55","30.03","104","1.5","4","0.00","0.00"
"13:39:58","91.5","72.1","53.3","30.03","243","2","4","0.00","0.00"
"13:44:57","91.4","72.1","53.3","30.03","325","3","9.2","0.00","0.00"
"13:49:59","91.5","71.7","52.6","30.03","344","2.7","7","0.00","0.00"
"13:54:57","91.6","71.6","52.2","30.03","330","2.4","6","0.00","0.00"
"13:59:59","91.7","72.5","53.6","30.03","324","2.5","12","0.00","0.00"
"14:04:57","91.7","72.6","53.9","30.02","335","2.4","6","0.00","0.00"
"14:09:56","91.8","73.4","55.2","30.02","335","0.6","3.5","0.00","0.00"
"14:14:59","92.1","72.6","53.3","30.02","304","1.3","7","0.00","0.00"
"14:19:57","92.2","71.9","51.9","30.01","328","4.1","11.5","0.00","0.00"
"14:24:57","92","71","50.5","30.01","320","1.3","6","0.00","0.00"
"14:29:59","92.1","71.8","51.8","30.01","335","1.7","5","0.00","0.00"
"14:34:58","92.5","72.7","52.8","30.01","355","1.9","6","0.00","0.00"
"14:39:57","92.7","72.1","51.4","30.01","354","1.4","6","0.00","0.00"
"14:44:59","92.7","72.9","52.7","30.01","351","0.8","3","0.00","0.00"
"14:49:57","92.7","72","51.3","30.01","335","2.1","5","0.00","0.00"
"14:54:56","93","72.7","51.8","30.01","339","1.7","5","0.00","0.00"
"14:59:58","93.2","72.5","51.2","30.01","0","1.3","8","0.00","0.00"
"15:04:56","93","70.9","48.7","30.00","336","3.4","9.2","0.00","0.00"
"15:09:59","92.8","71.5","50.1","30.00","347","2","6.9","0.00","0.00"
"15:14:58","92.7","71","49.6","30.00","341","2.8","7","0.00","0.00"
"15:19:56","92.4","70.6","49.2","30.00","342","1.3","4.6","0.00","0.00"
"15:24:59","92.1","71.3","50.9","30.00","349","1.7","6","0.00","0.00"
"15:29:57","91.8","70.5","49.9","30.00","345","0.3","3.5","0.00","0.00"
"15:34:59","91.7","71.5","51.9","30.00","330","1.4","4","0.00","0.00"
"15:39:59","92","70.6","49.7","30.00","305","1.4","6","0.00","0.00"
"15:44:57","92.5","70.9","49.6","30.00","223","1.5","4","0.00","0.00"
"15:49:55","92.9","72","50.9","29.99","231","1.3","4","0.00","0.00"
